This is the latest recevied weather packets stored in our database for station/object SP9KB-13. If no packets are shown the sender has not sent any weather packets the latest 10 day(s).
| Time | Temp. | Humidity | Pressure | Rain* | Wind** | Luminosity | Snow |
|---|---|---|---|---|---|---|---|
| 1777949721 | 1.67° C | 95% | 995.9 hPa | 0 mm | - | - | - |
| 1777949420 | 1.67° C | 95% | 996.1 hPa | 0 mm | - | - | - |
| 1777949119 | 2.22° C | 94% | 996 hPa | 0 mm | - | - | - |
| 1777948819 | 2.22° C | 95% | 995.9 hPa | 0 mm | - | - | - |
| 1777948518 | 2.22° C | 95% | 996.1 hPa | 0 mm | - | - | - |
| 1777948218 | 2.22° C | 95% | 996 hPa | 0 mm | - | - | - |
| 1777947917 | 2.22° C | 95% | 996.1 hPa | 0 mm | - | - | - |
| 1777947617 | 2.22° C | 94% | 996 hPa | 0 mm | - | - | - |
| 1777947316 | 2.78° C | 94% | 996 hPa | 0 mm | - | - | - |
| 1777947016 | 2.22° C | 94% | 995.9 hPa | 0 mm | - | - | - |
| 1777946715 | 2.78° C | 94% | 995.9 hPa | 0 mm | - | - | - |
| 1777946415 | 2.78° C | 94% | 996.2 hPa | 0 mm | - | - | - |
| 1777946114 | 2.78° C | 93% | 996 hPa | 0 mm | - | - | - |
| 1777945813 | 2.78° C | 93% | 996.1 hPa | 0 mm | - | - | - |
| 1777945513 | 3.33° C | 93% | 996.2 hPa | 0 mm | - | - | - |
| 1777945212 | 2.78° C | 93% | 995.9 hPa | 0 mm | - | - | - |
| 1777944912 | 3.33° C | 92% | 996 hPa | 0 mm | - | - | - |
| 1777944611 | 2.78° C | 91% | 996.1 hPa | 0 mm | - | - | - |
| 1777944311 | 3.33° C | 92% | 996.1 hPa | 0 mm | - | - | - |
| 1777944010 | 3.33° C | 91% | 996 hPa | 0 mm | - | - | - |
| 1777943709 | 3.33° C | 90% | 996.1 hPa | 0 mm | - | - | - |
| 1777943409 | 3.89° C | 90% | 996.1 hPa | 0 mm | - | - | - |
| 1777943108 | 3.89° C | 90% | 996.2 hPa | 0 mm | - | - | - |
| 1777942808 | 4.44° C | 89% | 996.2 hPa | 0 mm | - | - | - |
| 1777942508 | 4.44° C | 89% | 996.3 hPa | 0 mm | - | - | - |
* Rain latest hour (hover to see other rain measurements)
** Current wind speed in m/s (hover to see current wind gust speed)